Waarnemingen

Advertentie
Mijn weer
Soderstjerna, Zweden (2667): temperatuur & dauwpunt: 11.02.2019 13:00:00 - 17.02.2019 13:00:00 (CET)Soderstjerna, Zweden (2667): windsnelheid & windstoten: 11.02.2019 13:00:00 - 17.02.2019 13:00:00 (CET)Soderstjerna, Zweden (2667): windrichting: 11.02.2019 13:00:00 - 17.02.2019 13:00:00 (CET)Soderstjerna, Zweden (2667): luchtdruk: 11.02.2019 13:00:00 - 17.02.2019 13:00:00 (CET)Soderstjerna, Zweden (2667): zicht: 11.02.2019 13:00:00 - 17.02.2019 13:00:00 (CET)Soderstjerna, Zweden (2667): neerslag: 11.02.2019 13:00:00 - 17.02.2019 13:00:00 (CET)
Datum & Tijd tt [°C] td [°C] ff [km/u] ff [kn] fx [km/u] fx [kn] dd ppp [hPa] vv [km] rr [mm]
17.02.2019 13:00:00 - - - - - - - - - -
17.02.2019 12:00:00 5,0 3,5 22 12 25 14 W 1022,2 14 0,0
17.02.2019 11:00:00 5,0 3,7 18 10 25 14 W 1022,2 12 0,0
17.02.2019 10:00:00 4,1 3,4 22 12 25 14 W 1021,7 6 0,0
17.02.2019 09:00:00 3,9 3,2 18 10 25 14 W 1021,4 4,8 0,0
17.02.2019 08:00:00 3,6 2,7 7 4 22 12 W 1021,2 6 0,0
17.02.2019 07:00:00 4,3 3,3 14 8 22 12 W 1020,7 5 0,0
17.02.2019 06:00:00 4,3 3,4 14 8 22 12 WZW 1019,9 5 0,0
17.02.2019 05:00:00 4,4 3,6 18 10 22 12 WZW 1019,5 5 0,0
17.02.2019 04:00:00 4,1 3,4 18 10 25 14 W 1019,1 3,6 0,0
17.02.2019 03:00:00 3,9 3,2 22 12 29 16 W 1019,1 3,3 0,0
17.02.2019 02:00:00 4,3 3,3 18 10 25 14 W 1019,1 4,3 0,0
17.02.2019 01:00:00 3,7 2,7 22 12 29 16 W 1018,6 3,4 0,0
17.02.2019 00:00:00 4,0 2,8 14 8 29 16 W 1018,6 5 0,0
16.02.2019 23:00:00 4,4 2,9 25 14 32 18 W 1018,5 7 0,0
16.02.2019 22:00:00 4,4 2,7 25 14 29 16 W 1018,4 8 0,0
16.02.2019 21:00:00 4,4 2,6 22 12 32 18 W 1018,1 10 0,0
16.02.2019 20:00:00 4,7 2,7 25 14 32 18 W 1017,7 12 0,0
16.02.2019 19:00:00 4,7 2,6 22 12 29 16 WZW 1017,4 14 0,0
16.02.2019 18:00:00 5,6 2,4 22 12 32 18 W 1017,1 19 0,0
16.02.2019 17:00:00 4,9 2,8 29 16 36 19 WZW 1016,9 16 0,0
16.02.2019 16:00:00 5,3 2,8 32 18 36 19 WZW 1016,7 20 0,0
16.02.2019 15:00:00 5,5 2,8 25 14 29 16 WZW 1017,2 20 0,0
16.02.2019 14:00:00 5,1 2,6 18 10 25 14 W 1018,3 22 0,0
16.02.2019 13:00:00 4,8 2,7 22 12 25 14 W 1018,9 17 0,0
16.02.2019 12:00:00 4,7 2,6 22 12 29 16 W 1019,7 17 0,0
16.02.2019 11:00:00 4,6 2,6 18 10 25 14 WZW 1019,9 17 0,0
16.02.2019 10:00:00 4,9 2,3 22 12 29 16 WZW 1020,4 18 0,0
16.02.2019 09:00:00 4,6 2,1 22 12 29 16 WZW 1020,9 19 0,0
16.02.2019 08:00:00 4,2 2,2 22 12 25 14 WZW 1021,4 12 0,0
16.02.2019 07:00:00 3,4 2,1 11 6 18 10 WZW 1021,7 7 0,0
16.02.2019 06:00:00 3,2 1,9 7 4 11 6 ZZW 1022,5 8 0,0
16.02.2019 05:00:00 3,1 1,8 7 4 11 6 WZW 1023,2 6 0,0
16.02.2019 04:00:00 3,0 1,5 7 4 22 12 ZW 1023,8 7 0,0
16.02.2019 03:00:00 3,3 1,7 11 6 14 8 WZW 1024,5 9 0,0
16.02.2019 02:00:00 2,2 1,3 0 0 11 6 N 1025,6 2,8 0,0
16.02.2019 01:00:00 3,0 1,8 11 6 18 10 ZW 1026,0 6 0,0
16.02.2019 00:00:00 3,1 1,9 14 8 18 10 WZW 1026,2 8 0,0
15.02.2019 23:00:00 3,1 1,8 7 4 18 10 ZW 1026,6 11 0,0
15.02.2019 22:00:00 3,2 1,9 11 6 18 10 W 1027,1 10 0,0
15.02.2019 21:00:00 3,4 1,8 14 8 14 8 W 1027,3 11 0,0
15.02.2019 20:00:00 4,1 2,3 11 6 18 10 WZW 1027,6 21 0,0
15.02.2019 19:00:00 3,8 1,8 14 8 18 10 WZW 1027,7 40 0,0
15.02.2019 18:00:00 3,9 2,1 14 8 25 14 W 1027,6 40 0,0
15.02.2019 17:00:00 3,9 2,6 18 10 32 18 W 1027,7 30 0,0
15.02.2019 16:00:00 4,4 2,7 22 12 32 18 WZW 1028,0 30 0,0
15.02.2019 15:00:00 4,8 3,1 22 12 32 18 W 1028,3 21 0,0
15.02.2019 14:00:00 4,2 3,2 29 16 32 18 WZW 1028,5 10 0,0
15.02.2019 13:00:00 4,6 3,6 25 14 32 18 WZW 1029,0 11 0,0
15.02.2019 12:00:00 4,4 3,7 25 14 32 18 W 1029,5 8 0,0
15.02.2019 11:00:00 4,4 3,7 18 10 22 12 W 1029,9 11 0,0
15.02.2019 10:00:00 4,1 3,2 18 10 22 12 W 1029,8 10 0,0
15.02.2019 09:00:00 5,3 4,3 11 6 22 12 WNW 1029,6 17 0,0
15.02.2019 08:00:00 6,0 4,6 11 6 29 16 WNW 1029,2 22 0,0
15.02.2019 07:00:00 6,2 4,8 18 10 32 18 WNW 1028,7 22 0,0
15.02.2019 06:00:00 4,3 3,6 14 8 22 12 W 1028,6 10 0,0
15.02.2019 05:00:00 5,8 4,4 11 6 25 14 WNW 1028,5 24 0,0
15.02.2019 04:00:00 6,2 4,5 18 10 32 18 WNW 1028,5 23 0,0
15.02.2019 03:00:00 4,4 3,5 18 10 29 16 W 1028,5 10 0,0
15.02.2019 02:00:00 4,2 2,9 22 12 25 14 W 1028,7 12 0,0
15.02.2019 01:00:00 4,6 2,8 18 10 22 12 W 1028,6 18 0,0
15.02.2019 00:00:00 6,0 3,3 18 10 29 16 WNW 1028,5 17 0,0
14.02.2019 23:00:00 5,4 3,6 22 12 36 19 W 1028,4 13 0,0
14.02.2019 22:00:00 5,3 3,5 22 12 32 18 W 1028,5 13 0,0
14.02.2019 21:00:00 5,1 3,4 22 12 32 18 W 1028,6 16 0,0
14.02.2019 20:00:00 5,3 3,6 22 12 36 19 WNW 1029,0 20 0,0
14.02.2019 19:00:00 4,3 3,4 29 16 36 19 W 1029,0 4,7 0,0
14.02.2019 18:00:00 4,4 3,5 25 14 32 18 W 1029,2 11 0,0
14.02.2019 17:00:00 4,5 3,5 25 14 32 18 W 1029,3 10 0,0
14.02.2019 16:00:00 4,6 3,7 22 12 32 18 W 1029,2 9 0,0
14.02.2019 15:00:00 4,7 4,0 25 14 29 16 W 1029,4 6 0,0
14.02.2019 14:00:00 5,8 4,8 25 14 29 16 W 1029,6 10 0,0
14.02.2019 13:00:00 5,6 4,7 22 12 29 16 W 1030,2 14 0,0
14.02.2019 12:00:00 4,9 4,3 22 12 29 16 WZW 1030,0 7 0,0
14.02.2019 11:00:00 4,8 4,4 14 8 25 14 WZW 1030,3 8 0,0
14.02.2019 10:00:00 4,7 4,1 18 10 22 12 WZW 1030,1 19 0,0
14.02.2019 09:00:00 4,5 3,9 11 6 22 12 WZW 1030,1 40 0,0
14.02.2019 08:00:00 4,6 3,9 14 8 22 12 W 1029,5 35 0,0
14.02.2019 07:00:00 4,3 3,7 18 10 22 12 WZW 1029,1 8 0,0
14.02.2019 06:00:00 4,3 3,6 11 6 14 8 WZW 1028,6 17 0,0
14.02.2019 05:00:00 4,7 3,7 7 4 14 8 WNW 1028,4 17 0,0
14.02.2019 04:00:00 4,1 3,1 11 6 22 12 W 1027,9 13 0,0
14.02.2019 03:00:00 4,5 3,5 14 8 29 16 WNW 1027,6 13 0,0
14.02.2019 02:00:00 - - - - - - - - - -
14.02.2019 01:00:00 3,6 2,3 14 8 25 14 WNW 1026,8 11 0,0
14.02.2019 00:00:00 4,2 2,2 14 8 22 12 WNW 1026,2 11 0,0
13.02.2019 23:00:00 4,5 2,0 14 8 22 12 WNW 1025,8 11 0,0
13.02.2019 22:00:00 4,7 1,5 7 4 22 12 WNW 1025,5 12 0,0
13.02.2019 21:00:00 4,5 1,9 14 8 25 14 WNW 1025,0 11 0,0
13.02.2019 20:00:00 4,7 2,2 18 10 22 12 W 1024,5 10 0,0
13.02.2019 19:00:00 4,0 2,4 7 4 22 12 W 1024,4 10 0,0
13.02.2019 18:00:00 4,8 2,3 14 8 22 12 W 1023,7 12 0,0
13.02.2019 17:00:00 4,4 1,8 11 6 22 12 WZW 1022,7 12 0,0
13.02.2019 16:00:00 7,9 2,6 11 6 36 19 WNW 1021,8 15 0,0
13.02.2019 15:00:00 9,0 2,6 18 10 32 18 WNW 1020,9 20 0,0
13.02.2019 14:00:00 11,0 2,0 14 8 36 19 NW 1020,2 24 0,0
13.02.2019 13:00:00 10,9 2,1 18 10 40 21 NW 1019,4 28 0,0
13.02.2019 12:00:00 9,6 2,9 18 10 36 19 NW 1019,3 23 0,0
13.02.2019 11:00:00 7,8 3,1 25 14 36 19 WNW 1018,6 18 0,0
13.02.2019 10:00:00 7,1 3,3 22 12 40 21 WNW 1018,2 18 0,0
13.02.2019 09:00:00 5,9 3,2 29 16 40 21 W 1017,5 20 0,0
13.02.2019 08:00:00 5,4 3,4 29 16 36 19 W 1017,1 24 0,0
13.02.2019 07:00:00 5,9 4,2 25 14 47 25 W 1016,7 40 0,0
13.02.2019 06:00:00 5,2 4,5 32 18 40 21 W 1016,5 16 0,0
13.02.2019 05:00:00 3,4 3,0 25 14 36 19 W 1016,6 4,4 0,0
13.02.2019 04:00:00 3,2 2,8 32 18 43 23 W 1017,4 5 0,0
13.02.2019 03:00:00 3,1 2,1 36 19 47 25 WZW 1018,5 11 0,0
13.02.2019 02:00:00 2,8 1,6 32 18 43 23 WZW 1019,5 24 0,0
13.02.2019 01:00:00 2,0 1,1 29 16 40 21 WZW 1021,3 20 0,2
13.02.2019 00:00:00 1,6 0,6 29 16 40 21 WZW 1022,6 8 0,6
12.02.2019 23:00:00 1,2 -0,1 22 12 29 16 W 1024,0 3,3 0,2
12.02.2019 22:00:00 1,7 -2,1 14 8 25 14 W 1024,0 45 0,0
12.02.2019 21:00:00 1,9 -2,8 18 10 25 14 W 1024,3 50 0,0
12.02.2019 20:00:00 2,0 -3,9 18 10 25 14 W 1024,4 50 0,0
12.02.2019 19:00:00 2,1 -4,4 14 8 22 12 W 1024,6 50 0,0
12.02.2019 18:00:00 2,2 -3,9 14 8 18 10 W 1024,5 50 0,0
12.02.2019 17:00:00 2,5 -4,7 11 6 25 14 W 1024,1 50 0,0
12.02.2019 16:00:00 3,1 -6,1 14 8 29 16 NW 1023,8 45 0,0
12.02.2019 15:00:00 3,6 -5,9 14 8 29 16 WNW 1023,4 45 0,0
12.02.2019 14:00:00 3,9 -4,9 18 10 36 19 WNW 1022,7 45 0,0
12.02.2019 13:00:00 3,0 -3,8 14 8 25 14 WNW 1022,2 40 0,0
12.02.2019 12:00:00 2,9 -4,6 11 6 29 16 NW 1022,0 45 0,0
12.02.2019 11:00:00 1,6 -4,7 14 8 29 16 NNW 1021,5 45 0,0
12.02.2019 10:00:00 0,7 -4,3 14 8 29 16 N 1020,6 45 0,0
12.02.2019 09:00:00 -0,3 -4,5 14 8 32 18 NNW 1019,6 45 0,0
12.02.2019 08:00:00 -0,6 -4,7 14 8 25 14 NNW 1018,7 50 0,0
12.02.2019 07:00:00 -0,4 -4,6 14 8 32 18 NNW 1017,5 50 0,0
12.02.2019 06:00:00 -0,2 -4,8 14 8 29 16 NNW 1016,4 50 0,0
12.02.2019 05:00:00 0,1 -4,7 14 8 29 16 NNW 1015,6 50 0,0
12.02.2019 04:00:00 0,4 -4,8 18 10 29 16 NNW 1014,6 50 0,0
12.02.2019 03:00:00 0,7 -4,7 18 10 32 18 NW 1013,7 50 0,0
12.02.2019 02:00:00 1,0 -4,7 18 10 32 18 NW 1012,7 50 0,0
12.02.2019 01:00:00 1,1 -4,7 14 8 25 14 NNW 1011,9 50 0,0
12.02.2019 00:00:00 0,8 -4,0 7 4 22 12 NW 1011,2 50 0,0
11.02.2019 23:00:00 0,8 -3,7 11 6 29 16 NW 1010,4 50 0,0
11.02.2019 22:00:00 0,8 -2,8 11 6 25 14 WNW 1009,9 50 0,0
11.02.2019 21:00:00 1,3 -2,6 14 8 25 14 W 1009,5 50 0,0
11.02.2019 20:00:00 1,7 -2,6 14 8 36 19 NW 1008,7 50 0,0
11.02.2019 19:00:00 1,8 -1,8 18 10 36 19 NW 1007,7 45 0,0
11.02.2019 18:00:00 2,3 -1,5 18 10 40 21 NW 1006,2 50 0,0
11.02.2019 17:00:00 3,2 0,3 18 10 36 19 NNW 1004,5 50 0,0
11.02.2019 16:00:00 4,4 1,4 18 10 32 18 NNW 1002,7 45 0,0
11.02.2019 15:00:00 4,6 2,0 14 8 29 16 NW 1001,3 28 0,0
11.02.2019 14:00:00 5,3 1,6 18 10 32 18 NNW 999,7 40 0,0
11.02.2019 13:00:00 5,2 3,1 14 8 29 16 NNW 998,2 40 0,0

tt = temperatuur
td = dauwpunt
ff = windsnelheid
fx = windstoten
dd = windrichting
ppp = luchtdruk
vv = zicht
rr = neerslag

Weerstations in de omgeving